Location: *
(1.3500°S, 147.5000°W)
Time: 16:54:55
(UTC+00:00)

FengYun 1-2 T - Pass Details

Date: 07 April 2020
Orbit: 847 x 880 km, 98.7° (Epoch: 26 May)

Event Time Altitude Azimuth Distance (km) Brightness Sun altitude
Rises 04:16:43 0° 165° (SSE) 3,435 7.1 -6.3°
Reaches altitude 10° 04:19:06 10° 163° (SSE) 2,492 6.4 -6.9°
Maximum altitude 04:24:37 77° 78° (ENE) 876 4.2 -8.2°
Drops below altitude 10° 04:30:05 10° 352° (N) 2,464 6.8 -9.6°
Sets 04:32:26 0° 351° (N) 3,394 7.6 -10.2°
